Time,TemperatureF,DewpointF,PressureIn,WindDirection,WindDirectionDegrees,WindSpeedMPH,WindSpeedGustMPH,Humidity,HourlyPrecipIn,Conditions,Clouds,dailyrainin,SoftwareType,DateUTC
2013-03-21 00:02:00,23.0,9.0,30.13,NNW,340,6.0,-999.0,53,-99.99,,,-99.99,,2013-03-21 05:02:00,
2013-03-21 00:12:00,23.0,9.0,30.13,NNW,340,6.0,-999.0,53,-99.99,,,-99.99,,2013-03-21 05:12:00,
2013-03-21 00:22:00,23.0,9.0,30.13,North,350,6.0,-999.0,53,-99.99,,,-99.99,,2013-03-21 05:22:00,
2013-03-21 00:32:00,23.0,9.0,30.13,NNW,340,5.0,-999.0,53,-99.99,,,-99.99,,2013-03-21 05:32:00,
2013-03-21 00:43:00,21.0,9.0,30.13,North,350,5.0,-999.0,57,-99.99,,,-99.99,,2013-03-21 05:43:00,
2013-03-21 00:52:00,21.0,9.0,30.13,North,350,5.0,-999.0,57,-99.99,,,-99.99,,2013-03-21 05:52:00,
2013-03-21 01:02:00,21.0,10.0,30.13,NNW,330,5.0,-999.0,62,-99.99,,,-99.99,,2013-03-21 06:02:00,
2013-03-21 01:12:00,21.0,10.0,30.13,NNW,330,5.0,-999.0,62,-99.99,,,-99.99,,2013-03-21 06:12:00,
2013-03-21 01:22:00,21.0,10.0,30.12,NW,320,3.0,-999.0,62,-99.99,,,-99.99,,2013-03-21 06:22:00,
2013-03-21 01:32:00,21.0,10.0,30.12,NW,320,3.0,-999.0,62,-99.99,,,-99.99,,2013-03-21 06:32:00,
2013-03-21 01:42:00,21.0,10.0,30.12,NW,320,3.0,-999.0,62,-99.99,,,-99.99,,2013-03-21 06:42:00,
2013-03-21 01:52:00,21.0,10.0,30.12,WNW,290,5.0,-999.0,62,-99.99,,,-99.99,,2013-03-21 06:52:00,
2013-03-21 02:02:00,21.0,9.0,30.12,NW,310,3.0,-999.0,57,-99.99,,,-99.99,,2013-03-21 07:02:00,
2013-03-21 02:12:00,21.0,9.0,30.12,NW,310,3.0,-999.0,57,-99.99,,,-99.99,,2013-03-21 07:12:00,
2013-03-21 02:22:00,21.0,9.0,30.12,NW,310,3.0,-999.0,57,-99.99,,,-99.99,,2013-03-21 07:22:00,
2013-03-21 02:32:00,19.0,10.0,30.11,NNW,330,5.0,-999.0,67,-99.99,,,-99.99,,2013-03-21 07:32:00,
2013-03-21 02:42:00,19.0,10.0,30.11,NNW,340,5.0,-999.0,67,-99.99,,,-99.99,,2013-03-21 07:42:00,
2013-03-21 02:52:00,21.0,10.0,30.10,NNW,340,7.0,-999.0,62,-99.99,,,-99.99,,2013-03-21 07:52:00,
2013-03-21 03:02:00,21.0,9.0,30.10,NNW,340,5.0,-999.0,57,-99.99,,,-99.99,,2013-03-21 08:02:00,
2013-03-21 03:13:00,21.0,9.0,30.10,NNW,340,5.0,-999.0,57,-99.99,,,-99.99,,2013-03-21 08:13:00,
2013-03-21 03:22:00,21.0,9.0,30.10,North,350,8.0,-999.0,57,-99.99,,,-99.99,,2013-03-21 08:22:00,
2013-03-21 03:33:00,21.0,9.0,30.10,NNW,340,7.0,-999.0,57,-99.99,,,-99.99,,2013-03-21 08:33:00,
2013-03-21 03:42:00,21.0,9.0,30.10,North,350,3.0,-999.0,57,-99.99,,,-99.99,,2013-03-21 08:42:00,
2013-03-21 03:52:00,21.0,9.0,30.10,NNW,340,5.0,-999.0,57,-99.99,,,-99.99,,2013-03-21 08:52:00,
2013-03-21 04:02:00,21.0,9.0,30.10,North,350,3.0,-999.0,57,-99.99,,,-99.99,,2013-03-21 09:02:00,
2013-03-21 04:11:00,21.0,9.0,30.10,North,350,3.0,-999.0,57,-99.99,,,-99.99,,2013-03-21 09:11:00,
2013-03-21 04:21:00,19.0,9.0,30.09,North,350,3.0,-999.0,62,-99.99,,,-99.99,,2013-03-21 09:21:00,
2013-03-21 04:33:00,19.0,9.0,30.09,NNW,340,3.0,-999.0,62,-99.99,,,-99.99,,2013-03-21 09:33:00,
2013-03-21 04:43:00,19.0,10.0,30.09,NNW,340,3.0,-999.0,67,-99.99,,,-99.99,,2013-03-21 09:43:00,
2013-03-21 04:53:00,19.0,10.0,30.09,NNW,340,3.0,-999.0,67,-99.99,,,-99.99,,2013-03-21 09:53:00,
2013-03-21 05:03:00,19.0,10.0,30.09,North,0,0.0,-999.0,67,-99.99,,,-99.99,,2013-03-21 10:03:00,
2013-03-21 05:12:00,19.0,10.0,30.09,North,0,0.0,-999.0,67,-99.99,,,-99.99,,2013-03-21 10:12:00,
2013-03-21 05:22:00,19.0,10.0,30.09,North,0,0.0,-999.0,67,-99.99,,,-99.99,,2013-03-21 10:22:00,
2013-03-21 05:33:00,19.0,10.0,30.09,North,0,0.0,-999.0,67,-99.99,,,-99.99,,2013-03-21 10:33:00,
2013-03-21 05:42:00,19.0,10.0,30.09,North,0,0.0,-999.0,67,-99.99,,,-99.99,,2013-03-21 10:42:00,
2013-03-21 05:53:00,19.0,9.0,30.10,North,0,0.0,-999.0,62,-99.99,,,-99.99,,2013-03-21 10:53:00,
2013-03-21 06:03:00,18.0,9.0,30.09,North,10,3.0,-999.0,67,-99.99,,,-99.99,,2013-03-21 11:03:00,
2013-03-21 06:12:00,18.0,9.0,30.09,North,10,3.0,-999.0,67,-99.99,,,-99.99,,2013-03-21 11:12:00,
2013-03-21 06:22:00,19.0,9.0,30.10,North,0,0.0,-999.0,62,-99.99,,,-99.99,,2013-03-21 11:22:00,
2013-03-21 06:33:00,18.0,9.0,30.10,North,0,0.0,-999.0,67,-99.99,,,-99.99,,2013-03-21 11:33:00,
2013-03-21 06:42:00,18.0,9.0,30.10,North,0,0.0,-999.0,67,-99.99,,,-99.99,,2013-03-21 11:42:00,
2013-03-21 06:53:00,18.0,7.0,30.11,North,0,0.0,-999.0,62,-99.99,,,-99.99,,2013-03-21 11:53:00,
2013-03-21 07:02:00,19.0,7.0,30.11,North,0,0.0,-999.0,57,-99.99,,,-99.99,,2013-03-21 12:02:00,
2013-03-21 07:12:00,19.0,7.0,30.11,North,0,0.0,-999.0,57,-99.99,,,-99.99,,2013-03-21 12:12:00,
2013-03-21 07:22:00,18.0,7.0,30.11,North,0,0.0,-999.0,62,-99.99,,,-99.99,,2013-03-21 12:22:00,
2013-03-21 07:32:00,16.0,7.0,30.11,North,0,0.0,-999.0,67,-99.99,,,-99.99,,2013-03-21 12:32:00,
2013-03-21 07:42:00,16.0,7.0,30.11,North,0,0.0,-999.0,67,-99.99,,,-99.99,,2013-03-21 12:42:00,
2013-03-21 07:53:00,18.0,9.0,30.11,North,0,0.0,-999.0,67,-99.99,,,-99.99,,2013-03-21 12:53:00,
2013-03-21 08:02:00,19.0,10.0,30.11,North,0,0.0,-999.0,67,-99.99,,,-99.99,,2013-03-21 13:02:00,
2013-03-21 08:12:00,19.0,10.0,30.11,North,0,0.0,-999.0,67,-99.99,,,-99.99,,2013-03-21 13:12:00,
2013-03-21 08:22:00,19.0,10.0,30.11,North,0,0.0,-999.0,67,-99.99,,,-99.99,,2013-03-21 13:22:00,
2013-03-21 08:32:00,21.0,10.0,30.12,NNE,20,3.0,-999.0,62,-99.99,,,-99.99,,2013-03-21 13:32:00,
2013-03-21 08:42:00,21.0,10.0,30.12,NNE,20,3.0,-999.0,62,-99.99,,,-99.99,,2013-03-21 13:42:00,
2013-03-21 08:52:00,21.0,9.0,30.12,NNE,30,3.0,-999.0,57,-99.99,,,-99.99,,2013-03-21 13:52:00,
2013-03-21 09:02:00,23.0,9.0,30.12,North,0,0.0,-999.0,53,-99.99,,,-99.99,,2013-03-21 14:02:00,
2013-03-21 09:12:00,23.0,9.0,30.12,North,0,0.0,-999.0,53,-99.99,,,-99.99,,2013-03-21 14:12:00,
2013-03-21 09:22:00,23.0,9.0,30.12,North,0,0.0,-999.0,53,-99.99,,,-99.99,,2013-03-21 14:22:00,
2013-03-21 09:32:00,23.0,9.0,30.12,NNE,30,3.0,-999.0,53,-99.99,,,-99.99,,2013-03-21 14:32:00,
2013-03-21 09:42:00,25.0,9.0,30.12,North,360,3.0,-999.0,49,-99.99,,,-99.99,,2013-03-21 14:42:00,
2013-03-21 09:52:00,25.0,9.0,30.12,NNW,340,3.0,-999.0,49,-99.99,,,-99.99,,2013-03-21 14:52:00,
2013-03-21 10:03:00,25.0,10.0,30.12,WNW,300,3.0,-999.0,53,-99.99,,,-99.99,,2013-03-21 15:03:00,
2013-03-21 10:12:00,25.0,10.0,30.12,WNW,300,3.0,-999.0,53,-99.99,,,-99.99,,2013-03-21 15:12:00,
2013-03-21 10:22:00,25.0,10.0,30.12,WNW,300,3.0,-999.0,53,-99.99,,,-99.99,,2013-03-21 15:22:00,
2013-03-21 10:33:00,25.0,10.0,30.12,WNW,300,3.0,-999.0,53,-99.99,,,-99.99,,2013-03-21 15:33:00,
2013-03-21 10:42:00,27.0,9.0,30.12,North,10,6.0,-999.0,46,-99.99,,,-99.99,,2013-03-21 15:42:00,
2013-03-21 10:53:00,27.0,9.0,30.12,North,10,6.0,-999.0,46,-99.99,,,-99.99,,2013-03-21 15:53:00,
2013-03-21 11:03:00,28.0,9.0,30.11,NNE,30,3.0,-999.0,42,-99.99,,,-99.99,,2013-03-21 16:03:00,
2013-03-21 11:12:00,28.0,9.0,30.11,NNE,30,3.0,-999.0,42,-99.99,,,-99.99,,2013-03-21 16:12:00,
2013-03-21 11:23:00,28.0,7.0,30.11,NE,40,3.0,-999.0,39,-99.99,,,-99.99,,2013-03-21 16:23:00,
2013-03-21 11:33:00,28.0,7.0,30.11,ENE,60,6.0,-999.0,39,-99.99,,,-99.99,,2013-03-21 16:33:00,
2013-03-21 11:42:00,28.0,7.0,30.11,ENE,60,6.0,-999.0,39,-99.99,,,-99.99,,2013-03-21 16:42:00,
2013-03-21 11:53:00,30.0,7.0,30.10,East,80,5.0,-999.0,36,-99.99,,,-99.99,,2013-03-21 16:53:00,
2013-03-21 12:02:00,30.0,7.0,30.10,SE,140,6.0,-999.0,36,-99.99,,,-99.99,,2013-03-21 17:02:00,
2013-03-21 12:12:00,30.0,7.0,30.10,SE,140,6.0,-999.0,36,-99.99,,,-99.99,,2013-03-21 17:12:00,
2013-03-21 12:23:00,32.0,7.0,30.09,SE,130,3.0,-999.0,34,-99.99,,,-99.99,,2013-03-21 17:23:00,
2013-03-21 12:32:00,32.0,7.0,30.09,SE,130,3.0,-999.0,34,-99.99,,,-99.99,,2013-03-21 17:32:00,
2013-03-21 12:42:00,32.0,7.0,30.08,SSW,200,5.0,-999.0,34,-99.99,,,-99.99,,2013-03-21 17:42:00,
2013-03-21 12:53:00,32.0,7.0,30.08,SE,140,5.0,-999.0,34,-99.99,,,-99.99,,2013-03-21 17:53:00,
2013-03-21 13:02:00,32.0,7.0,30.08,NNW,340,3.0,-999.0,34,-99.99,,,-99.99,,2013-03-21 18:02:00,
2013-03-21 13:12:00,32.0,7.0,30.08,NNW,340,3.0,-999.0,34,-99.99,,,-99.99,,2013-03-21 18:12:00,
2013-03-21 13:32:00,34.0,7.0,30.06,West,260,3.0,-999.0,31,-99.99,,,-99.99,,2013-03-21 18:32:00,
2013-03-21 13:42:00,34.0,7.0,30.06,West,280,3.0,-999.0,31,-99.99,,,-99.99,,2013-03-21 18:42:00,
2013-03-21 13:52:00,34.0,9.0,30.05,West,280,3.0,-999.0,34,-99.99,,,-99.99,,2013-03-21 18:52:00,
2013-03-21 14:02:00,34.0,9.0,30.05,NW,310,5.0,-999.0,34,-99.99,,,-99.99,,2013-03-21 19:02:00,
2013-03-21 14:12:00,34.0,9.0,30.05,NW,310,5.0,-999.0,34,-99.99,,,-99.99,,2013-03-21 19:12:00,
2013-03-21 14:22:00,34.0,9.0,30.03,North,10,7.0,-999.0,34,-99.99,,,-99.99,,2013-03-21 19:22:00,
2013-03-21 14:32:00,34.0,9.0,30.03,NE,40,5.0,-999.0,34,-99.99,,,-99.99,,2013-03-21 19:32:00,
2013-03-21 14:42:00,34.0,9.0,30.02,NE,40,7.0,-999.0,34,-99.99,,,-99.99,,2013-03-21 19:42:00,
2013-03-21 14:53:00,36.0,7.0,30.01,NE,40,6.0,-999.0,29,-99.99,,,-99.99,,2013-03-21 19:53:00,
2013-03-21 15:02:00,36.0,7.0,30.01,NE,40,5.0,-999.0,29,-99.99,,,-99.99,,2013-03-21 20:02:00,
2013-03-21 15:12:00,36.0,7.0,30.01,NE,40,5.0,-999.0,29,-99.99,,,-99.99,,2013-03-21 20:12:00,
2013-03-21 15:22:00,37.0,7.0,30.00,NNE,20,7.0,-999.0,27,-99.99,,,-99.99,,2013-03-21 20:22:00,
2013-03-21 15:33:00,37.0,7.0,30.00,ENE,60,7.0,-999.0,27,-99.99,,,-99.99,,2013-03-21 20:33:00,
2013-03-21 15:42:00,37.0,7.0,30.00,SE,140,3.0,-999.0,27,-99.99,,,-99.99,,2013-03-21 20:42:00,
2013-03-21 15:53:00,37.0,7.0,29.98,SE,140,3.0,-999.0,27,-99.99,,,-99.99,,2013-03-21 20:53:00,
2013-03-21 16:02:00,37.0,7.0,29.98,West,270,3.0,-999.0,27,-99.99,,,-99.99,,2013-03-21 21:02:00,
2013-03-21 16:12:00,37.0,7.0,29.98,West,270,3.0,-999.0,27,-99.99,,,-99.99,,2013-03-21 21:12:00,
2013-03-21 16:22:00,39.0,7.0,29.98,NE,50,5.0,-999.0,25,-99.99,,,-99.99,,2013-03-21 21:22:00,
2013-03-21 16:32:00,37.0,7.0,29.98,ESE,110,6.0,-999.0,27,-99.99,,,-99.99,,2013-03-21 21:32:00,
2013-03-21 16:43:00,39.0,7.0,29.98,East,100,5.0,-999.0,25,-99.99,,,-99.99,,2013-03-21 21:43:00,
2013-03-21 16:53:00,39.0,7.0,29.98,East,100,5.0,-999.0,25,-99.99,,,-99.99,,2013-03-21 21:53:00,
2013-03-21 17:02:00,37.0,7.0,29.98,NNE,30,7.0,-999.0,27,-99.99,,,-99.99,,2013-03-21 22:02:00,
2013-03-21 17:13:00,37.0,7.0,29.98,NNE,30,7.0,-999.0,27,-99.99,,,-99.99,,2013-03-21 22:13:00,
2013-03-21 17:23:00,37.0,7.0,29.98,NNE,30,7.0,-999.0,27,-99.99,,,-99.99,,2013-03-21 22:23:00,
2013-03-21 17:33:00,37.0,7.0,29.98,NNE,30,7.0,-999.0,27,-99.99,,,-99.99,,2013-03-21 22:33:00,
2013-03-21 17:42:00,37.0,5.0,29.98,East,80,7.0,-999.0,25,-99.99,,,-99.99,,2013-03-21 22:42:00,
2013-03-21 17:53:00,37.0,3.0,29.98,East,100,6.0,-999.0,23,-99.99,,,-99.99,,2013-03-21 22:53:00,
2013-03-21 18:02:00,37.0,3.0,29.98,East,90,6.0,-999.0,23,-99.99,,,-99.99,,2013-03-21 23:02:00,
2013-03-21 18:12:00,37.0,3.0,29.98,East,90,6.0,-999.0,23,-99.99,,,-99.99,,2013-03-21 23:12:00,
2013-03-21 18:22:00,36.0,5.0,29.98,North,0,0.0,-999.0,27,-99.99,,,-99.99,,2013-03-21 23:22:00,
2013-03-21 18:32:00,36.0,5.0,29.98,East,90,5.0,-999.0,27,-99.99,,,-99.99,,2013-03-21 23:32:00,
2013-03-21 18:42:00,36.0,5.0,29.98,South,170,5.0,-999.0,27,-99.99,,,-99.99,,2013-03-21 23:42:00,
2013-03-21 18:53:00,36.0,5.0,29.98,South,170,5.0,-999.0,27,-99.99,,,-99.99,,2013-03-21 23:53:00,
2013-03-21 19:02:00,34.0,9.0,29.98,South,170,7.0,-999.0,34,-99.99,,,-99.99,,2013-03-22 00:02:00,
2013-03-21 19:12:00,34.0,9.0,29.98,South,170,7.0,-999.0,34,-99.99,,,-99.99,,2013-03-22 00:12:00,
2013-03-21 19:22:00,34.0,9.0,29.98,SSE,160,6.0,-999.0,34,-99.99,,,-99.99,,2013-03-22 00:22:00,
2013-03-21 19:32:00,34.0,9.0,29.98,SSE,160,3.0,-999.0,34,-99.99,,,-99.99,,2013-03-22 00:32:00,
2013-03-21 19:42:00,32.0,10.0,29.99,SSE,160,3.0,-999.0,40,-99.99,,,-99.99,,2013-03-22 00:42:00,
2013-03-21 19:52:00,32.0,10.0,29.98,SSE,150,3.0,-999.0,40,-99.99,,,-99.99,,2013-03-22 00:52:00,
2013-03-21 20:02:00,32.0,10.0,29.98,SE,130,3.0,-999.0,40,-99.99,,,-99.99,,2013-03-22 01:02:00,
2013-03-21 20:12:00,32.0,10.0,29.98,SE,130,3.0,-999.0,40,-99.99,,,-99.99,,2013-03-22 01:12:00,
2013-03-21 20:22:00,30.0,10.0,29.99,North,0,0.0,-999.0,43,-99.99,,,-99.99,,2013-03-22 01:22:00,
2013-03-21 20:32:00,32.0,10.0,30.00,North,0,0.0,-999.0,40,-99.99,,,-99.99,,2013-03-22 01:32:00,
2013-03-21 20:42:00,30.0,12.0,30.00,North,0,0.0,-999.0,46,-99.99,,,-99.99,,2013-03-22 01:42:00,
2013-03-21 20:53:00,30.0,10.0,30.00,North,0,0.0,-999.0,43,-99.99,,,-99.99,,2013-03-22 01:53:00,
2013-03-21 21:02:00,30.0,10.0,30.00,North,0,0.0,-999.0,43,-99.99,,,-99.99,,2013-03-22 02:02:00,
2013-03-21 21:12:00,30.0,10.0,30.00,North,0,0.0,-999.0,43,-99.99,,,-99.99,,2013-03-22 02:12:00,
2013-03-21 21:22:00,30.0,10.0,30.00,ENE,70,3.0,-999.0,43,-99.99,,,-99.99,,2013-03-22 02:22:00,
2013-03-21 21:32:00,30.0,10.0,30.00,North,0,0.0,-999.0,43,-99.99,,,-99.99,,2013-03-22 02:32:00,
2013-03-21 21:42:00,30.0,9.0,30.01,North,0,0.0,-999.0,39,-99.99,,,-99.99,,2013-03-22 02:42:00,
2013-03-21 21:53:00,30.0,10.0,30.01,ENE,70,3.0,-999.0,43,-99.99,,,-99.99,,2013-03-22 02:53:00,
2013-03-21 22:02:00,30.0,10.0,30.01,East,80,3.0,-999.0,43,-99.99,,,-99.99,,2013-03-22 03:02:00,
2013-03-21 22:12:00,30.0,10.0,30.01,East,80,3.0,-999.0,43,-99.99,,,-99.99,,2013-03-22 03:12:00,
2013-03-21 22:22:00,30.0,10.0,30.01,North,0,0.0,-999.0,43,-99.99,,,-99.99,,2013-03-22 03:22:00,
2013-03-21 22:33:00,30.0,12.0,30.01,East,90,3.0,-999.0,46,-99.99,,,-99.99,,2013-03-22 03:33:00,
2013-03-21 22:42:00,30.0,12.0,30.01,North,0,0.0,-999.0,46,-99.99,,,-99.99,,2013-03-22 03:42:00,
2013-03-21 22:53:00,30.0,12.0,30.01,North,0,0.0,-999.0,46,-99.99,,,-99.99,,2013-03-22 03:53:00,
2013-03-21 23:03:00,28.0,12.0,30.02,North,0,0.0,-999.0,50,-99.99,,,-99.99,,2013-03-22 04:03:00,
2013-03-21 23:12:00,28.0,12.0,30.02,North,0,0.0,-999.0,50,-99.99,,,-99.99,,2013-03-22 04:12:00,
2013-03-21 23:23:00,28.0,12.0,30.02,North,0,0.0,-999.0,50,-99.99,,,-99.99,,2013-03-22 04:23:00,
2013-03-21 23:32:00,28.0,14.0,30.01,East,100,3.0,-999.0,54,-99.99,,,-99.99,,2013-03-22 04:32:00,
2013-03-21 23:42:00,28.0,14.0,30.01,North,0,0.0,-999.0,54,-99.99,,,-99.99,,2013-03-22 04:42:00,
2013-03-21 23:52:00,28.0,14.0,30.01,North,0,0.0,-999.0,54,-99.99,,,-99.99,,2013-03-22 04:52:00,